[[{"header":{"parameterUnit":"m.s-1","parameterCategory":2,"la1":30.2991,"la2":30.254,"lo1":-89.0895,"lo2":-89.0444,"dy":0.0017,"dx":0.0017,"nx":28,"ny":28,"refTime":"2023-08-15T09:00:00:Z","depth":"0","parameterNumber":2,"parameterNumberName":"U-component_of_CURRENTS"},"data":[0,0,0,0,0,0,0,0,0,0,0,0,0,0,0,0,0,0,0,0,0,0,0,0,0,0,0,0,0,0,0,0,0,0,0,0,0,0,0,0,0,0,0,0,0,0,0,0,0,0,0,0,0,0,0,0,0,0,0.2,0.2001,0,0.2075,0.2076,0.2077,0.2084,0.2083,0.2082,0.2081,0.2269,0.2274,0.228,0,0,0,0,0,0,0,0,0,0,0,0,0,0.202,0.2019,0.2,0.2001,0.2002,0.2075,0.2076,0.2077,0.2084,0.2083,0.2082,0.2081,0.2267,0.2274,0.2281,0,0,0,0,0,0,0,0,0,0,0,0,0,0.2045,0.2018,0.2,0.2014,0.2016,0.2075,0.2076,0.2077,0.2084,0.2083,0.2082,0.2081,0.2265,0.2273,0.2281,0.236,0,0,0.2308,0.2312,0,0,0,0,0,0,0,0,0.2043,0.2044,0.2011,0.2013,0.2015,0.2068,0.2152,0.2177,0.2085,0.2059,0.2081,0.208,0.2213,0.2226,0.2242,0.2369,0.2377,0.2309,0.2314,0.2318,0.232,0,0,0,0,0,0,0,0.2041,0.2042,0.203,0.2012,0.2015,0.207,0.2071,0.2157,0.2144,0.2061,0.2061,0.2069,0.2215,0.2233,0.2246,0.2379,0.2308,0.2316,0.2321,0.2325,0.2616,0.2619,0,0,0,0,0,0,0.2024,0.2039,0.2028,0.2032,0.2026,0.207,0.2071,0.2053,0.2141,0.2152,0.207,0.2069,0.2219,0.2236,0.2253,0.2374,0.2318,0.2326,0.2331,0.2614,0.2617,0.2619,0,0,0,0,0,0,0.2024,0.2021,0.2025,0.2039,0.2043,0.207,0.2051,0.2055,0.2072,0.2147,0.216,0.2082,0.2219,0.2241,0.2337,0.238,0.233,0.2337,0.2611,0.2615,0.2618,0.2601,0,0,0,0,0,0,0.2023,0.202,0.2023,0.2037,0.2042,0.2061,0.2052,0.2057,0.2079,0.2078,0.2162,0.2177,0.2219,0.2323,0.2345,0.2391,0.2344,0.2607,0.2612,0.2617,0.2599,0.2604,0.2609,0,0,0,0,0,0.2023,0.2039,0.2022,0.2022,0.2036,0.2061,0.207,0.2086,0.208,0.2095,0.2154,0.2175,0.2369,0.2333,0.2358,0.2407,0.2605,0.2611,0.2616,0.2596,0.2603,0.2609,0,0,0,0,0,0,0.207,0.2041,0.2023,0.2032,0.204,0.2062,0.2093,0.209,0.2146,0.2151,0.2209,0.2231,0.234,0.2378,0.2336,0.2507,0.2492,0.2503,0.2468,0.2475,0.248,0.2461,0.2351,0,0,0,0,0,0.2073,0.2063,0.2052,0.2063,0.2065,0.2074,0.2094,0.2092,0.2133,0.2154,0.2207,0.2285,0.2386,0.2428,0.2517,0.2606,0.262,0.2656,0.2661,0.2665,0.2669,0.2747,0.2758,0.2638,0.2638,0.2638,0,0,0.2105,0.2081,0.2084,0.2071,0.2081,0.21,0.2083,0.2105,0.2126,0.2173,0.2238,0.2315,0.2419,0.2521,0.2572,0.2552,0.2697,0.2672,0.2674,0.2677,0.2754,0.2765,0.2776,0.2642,0.2641,0.2641,0,0,0.2157,0.2127,0.2137,0.2138,0.2135,0.2133,0.2134,0.2146,0.2155,0.222,0.2276,0.2368,0.2491,0.2571,0.2633,0.2723,0.2732,0.2756,0.2756,0.2831,0.2841,0.285,0.2827,0.2834,0.2744,0.2744,0.2744,0,0.2206,0.2186,0.2155,0.2165,0.2169,0.2144,0.2163,0.2181,0.2223,0.2242,0.2239,0.2441,0.252,0.2664,0.2693,0.2735,0.2743,0.2717,0.2834,0.2844,0.2853,0.2828,0.2836,0.2744,0.2744,0.2744,0.2744,0,0.2249,0.2247,0.226,0.2241,0.2245,0.226,0.2252,0.2263,0.2262,0.2281,0.2394,0.2498,0.2608,0.266,0.2708,0.283,0.28,0.2837,0.2805,0.2863,0.2834,0.2842,0.2744,0.2744,0.2744,0.2744,0,0,0.2327,0.2296,0.2297,0.2284,0.2275,0.2272,0.2303,0.2316,0.233,0.2386,0.2437,0.2607,0.2636,0.2709,0.2785,0.2849,0.2908,0.2863,0.2867,0.2813,0.3003,0.2756,0.2741,0.2965,0.2968,0.297,0.2933,0,0.2373,0.2377,0.2351,0.2367,0.2369,0.2342,0.2364,0.2372,0.2386,0.243,0.2526,0.2616,0.2663,0.2716,0.2798,0.2899,0.294,0.291,0.2979,0.2979,0.2733,0.2748,0.2604,0.2541,0.2942,0.2943,0.2944,0,0.2419,0.2404,0.2415,0.2384,0.2381,0.2386,0.2372,0.2391,0.2443,0.2459,0.2549,0.2611,0.2735,0.2763,0.2919,0.2894,0.2948,0.3003,0.3003,0.2789,0.275,0.2564,0.2541,0.2481,0.2957,0.2956,0.2955,0,0.2447,0.2444,0.2434,0.2432,0.2409,0.2401,0.2385,0.2405,0.2407,0.2479,0.2492,0.2634,0.269,0.2815,0.2882,0.2922,0.3005,0.3075,0.2895,0.2875,0.2772,0.2736,0.268,0.3185,0.3185,0.3185,0.3185,0,0.2491,0.2486,0.244,0.2438,0.2417,0.24,0.2391,0.2394,0.2421,0.243,0.2509,0.2543,0.2712,0.2763,0.2864,0.2842,0.2981,0.2876,0.286,0.2751,0.2716,0.2675,0.2651,0.3184,0.3184,0.3185,0.3185,0,0.2526,0.2506,0.2491,0.2451,0.2432,0.2412,0.2365,0.2368,0.2376,0.2395,0.2413,0.2478,0.2504,0.2594,0.2745,0.2754,0.2694,0.277,0.2556,0.2513,0.226,0.224,0.2063,0.2031,0.2573,0.2567,0.2562,0,0.2535,0.2534,0.2485,0.2471,0.245,0.2411,0.2389,0.236,0.2353,0.2346,0.2359,0.2357,0.2353,0.2375,0.2372,0.239,0.244,0.2263,0.2326,0.2185,0.2158,0.2118,0.2108,0.2182,0.2174,0.2168,0.2163,0,0.2567,0.2551,0.2545,0.2497,0.2464,0.2402,0.2359,0.2335,0.2302,0.2286,0.2241,0.2226,0.2147,0.2048,0.1981,0.2019,0.209,0.2122,0.2104,0.1915,0.1753,0.1732,0.2207,0.2105,0.2111,0.2115,0.2118,0.2121,0.2599,0.2592,0.2579,0.2519,0.2477,0.2387,0.2296,0.2245,0.2178,0.2053,0.2112,0.1966,0.1836,0.1694,0.169,0.1518,0.1633,0.1534,0.1539,0.1526,0.1427,0.1674,0.1469,0.1471,0.1472,0.1474,0.1475,0,0.2625,0.2617,0.2589,0.2506,0.2419,0.2381,0.2264,0.2132,0.1989,0.1882,0.1781,0.1542,0.1383,0.1288,0.109,0.1003,0.1067,0.0982,0.1,0.1046,0.1387,0.1302,0.0895,0.0895,0.0895,0.0896,0.0896,0.0896,0.2656,0.2638,0.2591,0.2449,0.2369,0.2161,0.2049,0.1857,0.1713,0.1425,0.1207,0.1132,0.1016,0.0783,0.0641,0.0645,0.0674,0.0518,0.0629,0.0958,0.1016,0.1071,0.099,0.0524,0.0524,0.0289,0.0287,0.0285]},{"header":{"parameterUnit":"m.s-1","parameterCategory":2,"la1":30.2991,"la2":30.254,"lo1":-89.0895,"lo2":-89.0444,"dy":0.0017,"dx":0.0017,"nx":28,"ny":28,"refTime":"2023-08-15T09:00:00:Z","depth":"0","parameterNumber":3,"parameterNumberName":"V-component_of_CURRENTS"},"data":[0,0,0,0,0,0,0,0,0,0,0,0,0,0,0,0,0,0,0,0,0,0,0,0,0,0,0,0,0,0,0,0,0,0,0,0,0,0,0,0,0,0,0,0,0,0,0,0,0,0,0,0,0,0,0,0,0,0,0.0133,0.0133,0,0.0279,0.0281,0.0284,0.0363,0.0362,0.0361,0.036,0.0717,0.0727,0.0737,0,0,0,0,0,0,0,0,0,0,0,0,0,0.0094,0.0094,0.0133,0.0133,0.0134,0.0278,0.0282,0.0285,0.0363,0.0362,0.0361,0.036,0.0714,0.0726,0.0738,0,0,0,0,0,0,0,0,0,0,0,0,0,0.0172,0.0094,0.0132,0.0183,0.0188,0.0278,0.0282,0.0285,0.0363,0.0362,0.0361,0.036,0.071,0.0725,0.074,0.086,0,0,0.0787,0.0794,0,0,0,0,0,0,0,0,0.0168,0.0175,0.0174,0.0179,0.0185,0.0292,0.0398,0.0484,0.0364,0.0308,0.036,0.0359,0.0588,0.0613,0.0656,0.0877,0.0892,0.0788,0.0798,0.0804,0.0809,0,0,0,0,0,0,0,0.0162,0.017,0.0202,0.0175,0.0182,0.0256,0.0266,0.0416,0.0466,0.0313,0.0316,0.0316,0.0594,0.0641,0.0666,0.0897,0.0788,0.0801,0.0811,0.0817,0.1292,0.1295,0,0,0,0,0,0,0.0114,0.0164,0.0197,0.0205,0.0161,0.0256,0.0268,0.0268,0.046,0.0483,0.0316,0.0318,0.0615,0.0648,0.0679,0.0895,0.0804,0.0819,0.0827,0.1289,0.1293,0.1297,0,0,0,0,0,0,0.0113,0.0116,0.0191,0.0179,0.0192,0.0256,0.0257,0.0271,0.0317,0.0458,0.0487,0.0345,0.0616,0.0657,0.0845,0.0907,0.0825,0.0839,0.1285,0.129,0.1295,0.1289,0,0,0,0,0,0,0.0111,0.0115,0.0108,0.0176,0.0191,0.0255,0.0258,0.0274,0.0312,0.0317,0.0493,0.0524,0.0618,0.0821,0.086,0.0927,0.0851,0.1281,0.1287,0.1293,0.1285,0.1294,0.1301,0,0,0,0,0,0.0109,0.0099,0.0107,0.011,0.0176,0.0255,0.0273,0.0321,0.0314,0.0355,0.0483,0.0519,0.0887,0.0838,0.0882,0.0955,0.1278,0.1285,0.1293,0.1282,0.1292,0.1301,0,0,0,0,0,0,0.0076,0.0107,0.0117,0.0115,0.0182,0.0264,0.0287,0.0321,0.0449,0.0455,0.0584,0.0629,0.0815,0.0889,0.083,0.1109,0.1081,0.1098,0.1058,0.1069,0.1076,0.1044,0.0864,0,0,0,0,0,0.0061,0.0065,0.0121,0.0125,0.0148,0.0219,0.0253,0.0293,0.0399,0.045,0.0579,0.0723,0.0884,0.0973,0.1121,0.1286,0.1271,0.1355,0.1363,0.1369,0.1374,0.1388,0.1395,0.1322,0.1322,0.1321,0,0,0.0047,0.0062,0.0065,0.0118,0.0166,0.0251,0.0241,0.0294,0.0392,0.0477,0.0658,0.0767,0.0935,0.1121,0.1208,0.1189,0.138,0.1379,0.1382,0.1385,0.1397,0.1403,0.1409,0.1327,0.1326,0.1325,0,0,0.0049,0.0037,0.0063,0.0121,0.0184,0.0251,0.0264,0.0366,0.0433,0.0607,0.0696,0.0828,0.1079,0.12,0.1295,0.1436,0.1421,0.1485,0.1507,0.152,0.1525,0.1528,0.1484,0.1484,0.1485,0.1485,0.1485,0,0.0038,0.008,0.0088,0.0149,0.0209,0.0254,0.0343,0.0431,0.0593,0.0667,0.0667,0.0996,0.1117,0.1339,0.1387,0.1452,0.1431,0.1452,0.1523,0.1527,0.1531,0.1485,0.1485,0.1486,0.1486,0.1486,0.1486,0,0.0088,0.0133,0.0153,0.0256,0.0326,0.0398,0.051,0.0604,0.0675,0.0764,0.0963,0.111,0.1286,0.1351,0.1426,0.1547,0.151,0.1523,0.1478,0.1536,0.1486,0.1485,0.1487,0.1487,0.1487,0.1486,0,0,0.0057,0.0171,0.0182,0.0258,0.039,0.0458,0.0611,0.0772,0.0862,0.0994,0.112,0.1356,0.1364,0.1471,0.1554,0.1578,0.1575,0.156,0.1561,0.1478,0.1554,0.1493,0.1486,0.1587,0.1588,0.1589,0.1492,0,0.0117,0.0237,0.0293,0.0453,0.0542,0.0634,0.0779,0.0914,0.1023,0.1152,0.1255,0.1404,0.1434,0.1494,0.153,0.1586,0.1581,0.1597,0.1545,0.1543,0.1451,0.1488,0.1448,0.1358,0.1492,0.1492,0.1492,0,0.0183,0.0254,0.0399,0.0569,0.0613,0.0714,0.0912,0.1044,0.121,0.1281,0.139,0.1453,0.156,0.1535,0.1597,0.16,0.1575,0.1577,0.1574,0.1522,0.1484,0.1336,0.1352,0.1413,0.1491,0.1491,0.1491,0,0.0194,0.0347,0.0464,0.0522,0.0709,0.079,0.0896,0.1073,0.1178,0.1326,0.1371,0.1502,0.1536,0.1554,0.1557,0.157,0.156,0.1574,0.1488,0.148,0.1442,0.143,0.1483,0.1576,0.1576,0.1576,0.1576,0,0.0268,0.0364,0.0462,0.0531,0.067,0.0786,0.0939,0.1061,0.12,0.13,0.1402,0.1464,0.1535,0.1545,0.1546,0.1503,0.1538,0.1489,0.1465,0.1438,0.1427,0.1475,0.1516,0.1572,0.1573,0.1574,0.1575,0,0.0299,0.0367,0.0499,0.0642,0.0685,0.0777,0.0933,0.1037,0.115,0.1266,0.1295,0.1414,0.1419,0.1456,0.1467,0.1463,0.1462,0.1413,0.1347,0.1319,0.1307,0.1348,0.1347,0.1416,0.1307,0.1305,0.1304,0,0.0345,0.0405,0.0532,0.0592,0.0657,0.0777,0.0869,0.1008,0.1094,0.1228,0.1271,0.1304,0.1343,0.1327,0.1318,0.1281,0.1366,0.1225,0.1268,0.1302,0.1331,0.1363,0.1427,0.1194,0.1192,0.119,0.1189,0,0.0425,0.0444,0.0534,0.0618,0.0703,0.0804,0.0914,0.0963,0.1107,0.116,0.1215,0.1238,0.1229,0.1195,0.1157,0.1147,0.1278,0.1182,0.1259,0.1284,0.1284,0.1339,0.1226,0.1172,0.1173,0.1175,0.1176,0.1176,0.0466,0.0518,0.0591,0.0675,0.0751,0.082,0.0862,0.0939,0.101,0.1056,0.1113,0.1105,0.1125,0.1071,0.1064,0.1066,0.1131,0.1095,0.1143,0.1174,0.1256,0.1076,0.098,0.0981,0.0981,0.0981,0.0982,0,0.053,0.0574,0.065,0.0732,0.0772,0.0812,0.0891,0.0884,0.089,0.0942,0.0942,0.0948,0.0956,0.0986,0.0991,0.1036,0.1109,0.1092,0.1167,0.1242,0.1104,0.1118,0.0999,0.0999,0.0999,0.0999,0.0999,0.0999,0.0578,0.0644,0.0665,0.0724,0.0758,0.0761,0.0774,0.0736,0.0746,0.0704,0.0693,0.0733,0.0853,0.0946,0.1055,0.1095,0.1262,0.1196,0.1332,0.1262,0.1268,0.1274,0.13,0.122,0.1221,0.1471,0.1473,0.1474]}],[{"header":{"parameterUnit":"m.s-1","parameterCategory":2,"la1":30.2991,"la2":30.254,"lo1":-89.0895,"lo2":-89.0444,"dy":0.0017,"dx":0.0017,"nx":28,"ny":28,"refTime":"2023-08-15T09:00:00:Z","depth":"2","parameterNumber":2,"parameterNumberName":"U-component_of_CURRENTS"},"data":[0,0,0,0,0,0,0,0,0,0,0,0,0,0,0,0,0,0,0,0,0,0,0,0,0,0,0,0,0,0,0,0,0,0,0,0,0,0,0,0,0,0,0,0,0,0,0,0,0,0,0,0,0,0,0,0,0,0,0.0936,0.0936,0,0.0958,0.0959,0.096,0.1044,0.1045,0.1046,0.1047,0.1441,0.145,0.146,0,0,0,0,0,0,0,0,0,0,0,0,0,0.1107,0.1103,0.0936,0.0935,0.0935,0.0957,0.0959,0.096,0.1044,0.1045,0.1046,0.1047,0.1438,0.1449,0.1461,0,0,0,0,0,0,0,0,0,0,0,0,0,0.1082,0.1102,0.0936,0.097,0.0973,0.0957,0.0959,0.0961,0.1044,0.1045,0.1046,0.1047,0.1434,0.1448,0.1462,0.1526,0,0,0.1507,0.1513,0,0,0,0,0,0,0,0,0.1083,0.1077,0.0966,0.0968,0.097,0.0989,0.1162,0.1164,0.1043,0.1029,0.1047,0.1048,0.1316,0.134,0.1353,0.1545,0.1562,0.1508,0.1517,0.1523,0.1527,0,0,0,0,0,0,0,0.1084,0.1077,0.0957,0.0965,0.0967,0.1031,0.1029,0.1163,0.1181,0.1031,0.1034,0.1017,0.1321,0.1338,0.1363,0.1568,0.1508,0.152,0.1529,0.1535,0.1966,0.1969,0,0,0,0,0,0,0.1048,0.1077,0.0956,0.0956,0.1018,0.1025,0.1024,0.0992,0.1172,0.1194,0.1016,0.102,0.1312,0.1346,0.1378,0.1594,0.1523,0.1537,0.1545,0.1963,0.1967,0.197,0,0,0,0,0,0,0.1051,0.1036,0.0955,0.101,0.1002,0.1019,0.0983,0.0991,0.1029,0.1154,0.1186,0.1047,0.1315,0.1358,0.1477,0.1605,0.1543,0.1556,0.196,0.1964,0.1968,0.1945,0,0,0,0,0,0,0.1056,0.1037,0.1034,0.1006,0.0997,0.0964,0.0981,0.099,0.1009,0.1017,0.1192,0.1227,0.1319,0.1454,0.1491,0.1624,0.1568,0.1957,0.1962,0.1967,0.1942,0.1948,0.1952,0,0,0,0,0,0.1062,0.1035,0.1033,0.102,0.098,0.0963,0.0968,0.0993,0.101,0.1034,0.1116,0.1223,0.1516,0.1464,0.1509,0.165,0.1954,0.196,0.1966,0.194,0.1947,0.1952,0,0,0,0,0,0,0.1171,0.1039,0.1037,0.0991,0.0987,0.0974,0.0984,0.0999,0.1078,0.109,0.1221,0.1262,0.1439,0.152,0.146,0.1787,0.1771,0.1786,0.1736,0.1744,0.1749,0.1718,0.158,0,0,0,0,0,0.1171,0.1079,0.1032,0.1007,0.0991,0.0994,0.0999,0.1005,0.1045,0.1079,0.1222,0.1361,0.1495,0.1587,0.1724,0.1874,0.1857,0.2005,0.201,0.2014,0.2018,0.2027,0.2031,0.199,0.199,0.1989,0,0,0.1192,0.1124,0.1071,0.1018,0.1011,0.1039,0.1005,0.0994,0.1061,0.1118,0.1296,0.139,0.1533,0.1705,0.1798,0.1792,0.201,0.2022,0.2023,0.2026,0.2034,0.2037,0.204,0.1994,0.1993,0.1992,0,0,0.1206,0.1143,0.1082,0.1083,0.1049,0.106,0.1059,0.108,0.1128,0.1252,0.1325,0.1433,0.1695,0.1783,0.1864,0.1972,0.2031,0.2087,0.2105,0.2114,0.2115,0.2117,0.2051,0.2047,0.2095,0.2095,0.2095,0,0.1192,0.1196,0.1087,0.109,0.1117,0.108,0.1122,0.1156,0.1242,0.1302,0.1324,0.1626,0.1727,0.1896,0.1932,0.199,0.1978,0.2064,0.2113,0.2115,0.2117,0.205,0.2046,0.2095,0.2095,0.2095,0.2095,0,0.1283,0.1241,0.1222,0.1205,0.1228,0.1241,0.1263,0.1331,0.1398,0.1457,0.1634,0.1716,0.1891,0.1963,0.1985,0.21,0.2077,0.2104,0.2079,0.2119,0.2046,0.2042,0.2094,0.2094,0.2094,0.2095,0,0,0.1285,0.1248,0.1265,0.125,0.1291,0.1296,0.1409,0.149,0.1556,0.1678,0.1797,0.1969,0.1989,0.2074,0.2124,0.2125,0.2091,0.2127,0.2127,0.2026,0.2066,0.1891,0.1869,0.2136,0.2136,0.2137,0.1988,0,0.137,0.1396,0.1398,0.1451,0.1445,0.1464,0.1566,0.1638,0.1723,0.1836,0.1894,0.2026,0.2042,0.2098,0.2113,0.2115,0.2091,0.2126,0.2074,0.2071,0.1884,0.1863,0.1805,0.1657,0.1984,0.1983,0.1983,0,0.1496,0.1485,0.1548,0.1502,0.1513,0.1595,0.1722,0.1777,0.1893,0.1952,0.2065,0.2113,0.2166,0.2146,0.2139,0.217,0.2119,0.2084,0.2078,0.1925,0.1891,0.1686,0.1637,0.1976,0.1976,0.1977,0.1977,0,0.1591,0.1572,0.1624,0.1638,0.1631,0.1704,0.1749,0.1864,0.1906,0.2015,0.2069,0.2153,0.2173,0.216,0.208,0.2128,0.2007,0.2064,0.1847,0.1832,0.1774,0.1752,0.2029,0.2029,0.2029,0.2029,0.203,0,0.166,0.1691,0.1671,0.1698,0.1789,0.1756,0.1864,0.1927,0.1997,0.2035,0.2115,0.2148,0.2178,0.2125,0.2073,0.1905,0.1996,0.1822,0.1787,0.1759,0.1738,0.2034,0.2037,0.2024,0.2025,0.2026,0.2027,0,0.174,0.1722,0.1744,0.1776,0.1809,0.1882,0.1938,0.1972,0.2026,0.2079,0.2104,0.2144,0.204,0.1993,0.191,0.1849,0.1729,0.1642,0.1553,0.1509,0.1555,0.1559,0.142,0.1413,0.1407,0.1401,0.1397,0,0.1781,0.179,0.1846,0.186,0.1893,0.1966,0.2002,0.2043,0.2045,0.2052,0.2056,0.1996,0.1916,0.1695,0.1592,0.1419,0.1499,0.123,0.1313,0.1514,0.1495,0.1509,0.1521,0.1217,0.1212,0.1207,0.1204,0,0.1847,0.188,0.1905,0.1958,0.2005,0.2021,0.206,0.2062,0.2028,0.2021,0.1936,0.1865,0.1681,0.1462,0.1223,0.1138,0.1262,0.1128,0.1382,0.1365,0.1307,0.1294,0.1316,0.1164,0.1168,0.1171,0.1173,0.1175,0.1932,0.1977,0.1991,0.2043,0.2062,0.2044,0.2001,0.1945,0.189,0.1749,0.175,0.153,0.1439,0.1031,0.0926,0.0856,0.0952,0.0905,0.0927,0.0952,0.0939,0.0873,0.0641,0.0642,0.0643,0.0644,0.0644,0,0.2022,0.2046,0.2054,0.2066,0.2029,0.2075,0.1983,0.1832,0.166,0.1545,0.1389,0.1084,0.0884,0.0796,0.0662,0.0599,0.0705,0.0539,0.071,0.0746,0.0779,0.0768,0.042,0.0419,0.0419,0.0418,0,0,0.2052,0.21,0.2085,0.2036,0.2012,0.1889,0.18,0.1571,0.1389,0.1096,0.0916,0.0832,0.0777,0.059,0.0547,0.0478,0.0628,0.0455,0.0635,0.0876,0.091,0.0977,0.0995,0,0,0,0,0]},{"header":{"parameterUnit":"m.s-1","parameterCategory":2,"la1":30.2991,"la2":30.254,"lo1":-89.0895,"lo2":-89.0444,"dy":0.0017,"dx":0.0017,"nx":28,"ny":28,"refTime":"2023-08-15T09:00:00:Z","depth":"2","parameterNumber":3,"parameterNumberName":"V-component_of_CURRENTS"},"data":[0,0,0,0,0,0,0,0,0,0,0,0,0,0,0,0,0,0,0,0,0,0,0,0,0,0,0,0,0,0,0,0,0,0,0,0,0,0,0,0,0,0,0,0,0,0,0,0,0,0,0,0,0,0,0,0,0,0,-0.0264,-0.0266,0,-0.0344,-0.0343,-0.0343,-0.0285,-0.0284,-0.0283,-0.0282,0.0036,0.0043,0.0051,0,0,0,0,0,0,0,0,0,0,0,0,0,-0.0225,-0.0223,-0.0264,-0.0266,-0.0269,-0.0344,-0.0343,-0.0342,-0.0285,-0.0284,-0.0283,-0.0282,0.0033,0.0042,0.0051,0,0,0,0,0,0,0,0,0,0,0,0,0,-0.025,-0.0223,-0.0263,-0.0262,-0.0264,-0.0344,-0.0343,-0.0342,-0.0285,-0.0284,-0.0282,-0.0281,0.003,0.0041,0.0053,0.0095,0,0,0.0088,0.0092,0,0,0,0,0,0,0,0,-0.0248,-0.0249,-0.026,-0.0263,-0.0265,-0.0318,-0.0214,-0.0182,-0.0286,-0.0259,-0.0282,-0.028,-0.0058,-0.004,-0.0038,0.011,0.0123,0.0089,0.0095,0.01,0.0104,0,0,0,0,0,0,0,-0.0246,-0.0246,-0.0277,-0.0263,-0.0267,-0.0316,-0.0314,-0.0209,-0.0144,-0.0261,-0.0261,-0.0299,-0.0054,-0.005,-0.0029,0.0128,0.0088,0.0098,0.0105,0.011,0.0455,0.0457,0,0,0,0,0,0,-0.0265,-0.0244,-0.0275,-0.0281,-0.0273,-0.0318,-0.0315,-0.0288,-0.0154,-0.0141,-0.03,-0.0296,-0.007,-0.0043,-0.0017,0.0157,0.01,0.0111,0.0118,0.0453,0.0455,0.0458,0,0,0,0,0,0,-0.0262,-0.0264,-0.0272,-0.0283,-0.0289,-0.032,-0.0291,-0.0291,-0.0286,-0.0192,-0.0166,-0.0297,-0.0068,-0.0033,0.0038,0.0166,0.0116,0.0126,0.045,0.0453,0.0457,0.0434,0,0,0,0,0,0,-0.0259,-0.026,-0.0251,-0.0282,-0.029,-0.0313,-0.0294,-0.0294,-0.0321,-0.0315,-0.018,-0.0151,-0.0064,0.0019,0.0049,0.0181,0.0135,0.0447,0.0451,0.0456,0.0431,0.0436,0.044,0,0,0,0,0,-0.0256,-0.0271,-0.0248,-0.0255,-0.0271,-0.0316,-0.0321,-0.033,-0.0322,-0.0318,-0.0261,-0.0155,0.0073,0.0026,0.0062,0.0201,0.0445,0.045,0.0455,0.0429,0.0435,0.044,0,0,0,0,0,0,-0.027,-0.0269,-0.0244,-0.0258,-0.0278,-0.0312,-0.0347,-0.0339,-0.0297,-0.0284,-0.0177,-0.0144,-0.0022,0.0068,0.0015,0.0313,0.03,0.0312,0.027,0.0276,0.028,0.0276,0.0145,0,0,0,0,0,-0.0265,-0.026,-0.027,-0.0288,-0.03,-0.0315,-0.034,-0.0332,-0.0317,-0.0299,-0.0206,-0.0088,0.0027,0.0121,0.0215,0.0358,0.036,0.0487,0.0491,0.0493,0.0514,0.0498,0.0501,0.0475,0.0475,0.0475,0,0,-0.0299,-0.0289,-0.0297,-0.0291,-0.0311,-0.0295,-0.0321,-0.0358,-0.0287,-0.0263,-0.0145,-0.0097,0.0049,0.0196,0.0273,0.0296,0.0509,0.05,0.0502,0.0522,0.0504,0.0505,0.0507,0.0479,0.0478,0.0478,0,0,-0.0363,-0.0329,-0.0342,-0.0332,-0.0353,-0.0325,-0.0332,-0.0332,-0.027,-0.0183,-0.014,-0.0075,0.0146,0.0237,0.0328,0.0409,0.0491,0.0512,0.0586,0.0569,0.0569,0.057,0.0588,0.059,0.0561,0.0561,0.0561,0,-0.0424,-0.0365,-0.0366,-0.0357,-0.0325,-0.0326,-0.0291,-0.0238,-0.02,-0.0117,-0.0126,0.0091,0.0173,0.0353,0.0391,0.0425,0.0436,0.055,0.0568,0.0569,0.057,0.0588,0.059,0.0561,0.0561,0.0561,0.0561,0,-0.0431,-0.0405,-0.0424,-0.0349,-0.0316,-0.0305,-0.0215,-0.0137,-0.0054,0.0013,0.0164,0.0199,0.0347,0.0401,0.0439,0.0545,0.0556,0.0525,0.0538,0.0569,0.0589,0.0592,0.056,0.056,0.056,0.056,0,0,-0.0518,-0.0445,-0.0435,-0.038,-0.0282,-0.0255,-0.0099,0.0053,0.0169,0.0235,0.0374,0.0504,0.0492,0.0584,0.0612,0.0609,0.0603,0.0599,0.0598,0.059,0.0603,0.0593,0.0595,0.0572,0.0573,0.0573,0.0616,0,-0.0518,-0.0459,-0.0387,-0.0296,-0.0252,-0.0128,0.0023,0.0169,0.0307,0.0434,0.0498,0.0603,0.0586,0.0627,0.0627,0.0591,0.0612,0.0598,0.0601,0.0602,0.0564,0.0597,0.0517,0.0547,0.0618,0.0619,0.0619,0,-0.0504,-0.0447,-0.0351,-0.0204,-0.0167,-0.0069,0.0214,0.0319,0.0517,0.062,0.0719,0.0747,0.0795,0.0721,0.0713,0.0711,0.0684,0.0632,0.0632,0.0636,0.0597,0.053,0.0549,0.0624,0.0624,0.0623,0.0623,0,-0.0498,-0.0409,-0.0298,-0.0251,-0.0091,0.0046,0.0166,0.0394,0.053,0.0695,0.0773,0.0847,0.0844,0.0815,0.0753,0.0743,0.0691,0.0658,0.0636,0.0636,0.0577,0.0571,0.0649,0.0648,0.0648,0.0648,0.0648,0,-0.0485,-0.0405,-0.0281,-0.0228,-0.0021,0.0057,0.0281,0.0439,0.0607,0.0728,0.0819,0.0889,0.0852,0.0839,0.0791,0.073,0.0734,0.0663,0.0644,0.0572,0.0566,0.0639,0.0637,0.065,0.065,0.0649,0.0649,0,-0.0478,-0.0425,-0.0308,-0.0124,-0.0028,0.0112,0.0361,0.0485,0.0623,0.0769,0.0808,0.0916,0.0886,0.086,0.0786,0.076,0.0703,0.0684,0.0625,0.0599,0.0663,0.0661,0.0688,0.0688,0.0688,0.0688,0.0688,0,-0.0453,-0.0408,-0.0213,-0.0121,-0.0013,0.0189,0.034,0.0526,0.0625,0.0774,0.0817,0.0857,0.0887,0.0817,0.0751,0.0702,0.0701,0.062,0.0578,0.0687,0.0667,0.0664,0.0661,0.0501,0.05,0.0499,0.0498,0,-0.0389,-0.0334,-0.0225,-0.0045,0.012,0.0289,0.0475,0.0559,0.0694,0.0775,0.0828,0.0847,0.0812,0.0719,0.0676,0.0633,0.0624,0.0595,0.0706,0.0504,0.0514,0.0493,0.0496,0.0486,0.0487,0.0488,0.0489,0.0489,-0.0303,-0.0223,-0.0112,0.0082,0.0228,0.0361,0.0454,0.0552,0.0663,0.0719,0.0753,0.0729,0.0706,0.0598,0.0577,0.0553,0.0565,0.0522,0.0524,0.0528,0.0499,0.0508,0.0476,0.0477,0.0478,0.0479,0.048,0,-0.0178,-0.0103,0.0017,0.0192,0.0305,0.0405,0.0529,0.0531,0.0567,0.0619,0.0623,0.0533,0.0504,0.0502,0.0434,0.0433,0.0429,0.0436,0.0402,0.041,0.0419,0.0384,0.0331,0.0332,0.0332,0.0332,0,0,-0.0112,0.0019,0.0061,0.0256,0.0352,0.0447,0.0489,0.0458,0.0458,0.0414,0.0403,0.0464,0.0465,0.0399,0.0377,0.0343,0.0392,0.0347,0.0449,0.0415,0.0424,0.0433,0.0384,0,0,0,0,0]}],[{"header":{"parameterUnit":"m.s-1","parameterCategory":2,"la1":30.2991,"la2":30.254,"lo1":-89.0895,"lo2":-89.0444,"dy":0.0017,"dx":0.0017,"nx":28,"ny":28,"refTime":"2023-08-15T09:00:00:Z","depth":"4","parameterNumber":2,"parameterNumberName":"U-component_of_CURRENTS"},"data":[0,0,0,0,0,0,0,0,0,0,0,0,0,0,0,0,0,0,0,0,0,0,0,0,0,0,0,0,0,0,0,0,0,0,0,0,0,0,0,0,0,0,0,0,0,0,0,0,0,0,0,0,0,0,0,0,0,0,-0.067,-0.0669,0,-0.0616,-0.0616,-0.0615,-0.0635,-0.0636,-0.0637,-0.0637,-0.0725,-0.0726,-0.0728,0,0,0,0,0,0,0,0,0,0,0,0,0,-0.0687,-0.0687,-0.067,-0.0669,-0.0667,-0.0616,-0.0616,-0.0615,-0.0635,-0.0636,-0.0637,-0.0638,-0.0724,-0.0726,-0.0728,0,0,0,0,0,0,0,0,0,0,0,0,0,-0.0666,-0.0688,-0.067,-0.0667,-0.0666,-0.0616,-0.0616,-0.0615,-0.0635,-0.0636,-0.0637,-0.0638,-0.0724,-0.0726,-0.0728,-0.0721,0,0,-0.0736,-0.0737,0,0,0,0,0,0,0,0,-0.0667,-0.0666,-0.0669,-0.0667,-0.0666,-0.0629,-0.0653,-0.0656,-0.0635,-0.0652,-0.0637,-0.0639,-0.0702,-0.0706,-0.0699,-0.0725,-0.0729,-0.0736,-0.0738,-0.0739,-0.0739,0,0,0,0,0,0,0,-0.0669,-0.0668,-0.0654,-0.0667,-0.0665,-0.0633,-0.0633,-0.0653,-0.0678,-0.0651,-0.0651,-0.0636,-0.0703,-0.0696,-0.0701,-0.073,-0.0736,-0.0738,-0.074,-0.0741,-0.0858,-0.0859,0,0,0,0,0,0,-0.0669,-0.067,-0.0655,-0.0652,-0.0663,-0.0632,-0.0632,-0.0644,-0.0675,-0.0678,-0.0635,-0.0637,-0.0691,-0.0698,-0.0705,-0.0694,-0.0739,-0.0741,-0.0742,-0.0856,-0.0858,-0.086,0,0,0,0,0,0,-0.067,-0.067,-0.0657,-0.0653,-0.0649,-0.0631,-0.0644,-0.0642,-0.0651,-0.066,-0.0668,-0.0647,-0.0693,-0.0701,-0.0763,-0.0698,-0.0742,-0.0744,-0.0854,-0.0857,-0.0859,-0.0676,0,0,0,0,0,0,-0.0672,-0.0671,-0.0678,-0.0655,-0.0649,-0.0638,-0.0642,-0.064,-0.0637,-0.064,-0.0673,-0.0681,-0.0694,-0.076,-0.0766,-0.0702,-0.0746,-0.0852,-0.0855,-0.0858,-0.068,-0.0672,-0.0665,0,0,0,0,0,-0.0673,-0.0676,-0.068,-0.0677,-0.0662,-0.0637,-0.0632,-0.0625,-0.0636,-0.0639,-0.0686,-0.0681,-0.0783,-0.0763,-0.077,-0.0705,-0.0851,-0.0854,-0.0858,-0.0684,-0.0674,-0.0665,0,0,0,0,0,0,-0.0688,-0.0677,-0.0681,-0.0683,-0.0666,-0.0639,-0.0632,-0.0631,-0.0664,-0.0683,-0.0705,-0.0716,-0.0729,-0.0784,-0.0762,-0.0764,-0.0814,-0.0819,-0.0679,-0.0671,-0.0663,-0.0676,-0.0748,0,0,0,0,0,-0.0693,-0.0696,-0.0679,-0.0679,-0.0674,-0.0658,-0.0647,-0.0648,-0.0664,-0.0678,-0.0698,-0.0739,-0.0745,-0.0767,-0.079,-0.0805,-0.0899,-0.0779,-0.0771,-0.0763,-0.0788,-0.0932,-0.0938,-0.0872,-0.0872,-0.0872,0,0,-0.0694,-0.0689,-0.0689,-0.0681,-0.067,-0.0648,-0.0657,-0.065,-0.0622,-0.0685,-0.0682,-0.0707,-0.0748,-0.0742,-0.0755,-0.0783,-0.082,-0.0768,-0.0759,-0.079,-0.0936,-0.0942,-0.0948,-0.0875,-0.0874,-0.0874,0,0,-0.0689,-0.0702,-0.07,-0.0692,-0.0677,-0.0652,-0.0655,-0.0643,-0.0633,-0.0613,-0.0658,-0.0699,-0.0676,-0.0727,-0.0733,-0.0728,-0.0767,-0.0697,-0.0664,-0.08,-0.0806,-0.0812,-0.0871,-0.0885,-0.0702,-0.0701,-0.0701,0,-0.069,-0.0687,-0.0692,-0.0688,-0.0656,-0.0655,-0.0627,-0.0612,-0.062,-0.0638,-0.0595,-0.0663,-0.0667,-0.0729,-0.0673,-0.0702,-0.076,-0.0665,-0.0785,-0.0794,-0.0804,-0.0864,-0.0882,-0.0693,-0.0694,-0.0695,-0.0695,0,-0.0677,-0.0679,-0.0675,-0.0659,-0.063,-0.0611,-0.0578,-0.0572,-0.0527,-0.0535,-0.0569,-0.0601,-0.0653,-0.0627,-0.0597,-0.0673,-0.0679,-0.0739,-0.0787,-0.0798,-0.0862,-0.0883,-0.0681,-0.0684,-0.0686,-0.0688,0,0,-0.0662,-0.0663,-0.0664,-0.0645,-0.061,-0.0581,-0.0538,-0.0517,-0.055,-0.0523,-0.0579,-0.0525,-0.0583,-0.0605,-0.0634,-0.0716,-0.0746,-0.0707,-0.0718,-0.0729,-0.0979,-0.0721,-0.072,-0.0804,-0.0808,-0.0812,-0.0968,0,-0.064,-0.063,-0.0614,-0.0565,-0.0543,-0.0517,-0.0479,-0.0479,-0.0478,-0.0552,-0.0606,-0.0645,-0.0564,-0.0573,-0.0642,-0.0753,-0.0804,-0.0695,-0.1003,-0.1012,-0.0753,-0.0739,-0.0826,-0.0984,-0.0989,-0.0993,-0.0996,0,-0.0624,-0.0611,-0.0573,-0.0526,-0.0513,-0.0464,-0.0439,-0.0411,-0.0523,-0.0532,-0.0625,-0.0695,-0.0784,-0.0722,-0.0905,-0.0824,-0.0855,-0.0935,-0.0946,-0.0797,-0.0795,-0.0999,-0.1035,-0.1032,-0.1029,-0.1027,-0.1024,0,-0.0613,-0.0571,-0.0529,-0.0515,-0.0471,-0.042,-0.0363,-0.0418,-0.0437,-0.0553,-0.0626,-0.0772,-0.0828,-0.0945,-0.0977,-0.0948,-0.1205,-0.1227,-0.1049,-0.1032,-0.1299,-0.1292,-0.1368,-0.1368,-0.1368,-0.1367,-0.1367,0,-0.0579,-0.0571,-0.0515,-0.0507,-0.0436,-0.0386,-0.0368,-0.0363,-0.0451,-0.0518,-0.0617,-0.0689,-0.0874,-0.1016,-0.106,-0.1075,-0.1265,-0.1034,-0.1061,-0.1209,-0.1191,-0.1309,-0.13,-0.1373,-0.1372,-0.1371,-0.137,0,-0.0604,-0.0581,-0.0555,-0.0483,-0.0443,-0.0384,-0.0317,-0.0355,-0.0396,-0.0504,-0.0523,-0.0664,-0.0717,-0.0915,-0.1113,-0.1129,-0.1228,-0.1187,-0.1286,-0.1319,-0.0948,-0.0929,-0.1034,-0.1026,-0.102,-0.1014,-0.101,0,-0.06,-0.0602,-0.0557,-0.051,-0.0461,-0.037,-0.0341,-0.0318,-0.0357,-0.0437,-0.0502,-0.0574,-0.0637,-0.0778,-0.0904,-0.1035,-0.1007,-0.1119,-0.1038,-0.0901,-0.0919,-0.091,-0.0899,-0.0999,-0.0998,-0.0996,-0.0994,0,-0.061,-0.0638,-0.0625,-0.0545,-0.047,-0.0417,-0.0346,-0.0359,-0.0348,-0.0438,-0.0427,-0.0464,-0.0522,-0.0605,-0.0699,-0.0789,-0.1105,-0.1051,-0.1065,-0.099,-0.0861,-0.0883,-0.088,-0.0972,-0.0975,-0.0977,-0.0978,0,-0.063,-0.0635,-0.063,-0.0536,-0.048,-0.042,-0.0391,-0.0342,-0.0342,-0.0403,-0.0356,-0.0408,-0.0457,-0.0466,-0.0555,-0.0606,-0.0587,-0.0679,-0.0712,-0.0738,-0.0559,-0.0346,-0.0317,0,0,0,0,0,-0.0612,-0.0624,-0.0588,-0.0503,-0.0475,-0.042,-0.0386,-0.0373,-0.0364,-0.0334,-0.033,-0.0323,-0.0321,-0.034,-0.0326,-0.0422,-0.0627,-0.0413,-0.0758,-0.0847,-0.0873,-0.0683,0,0,0,0,0,0,-0.0587,-0.061,-0.0598,-0.0499,-0.0432,-0.0391,-0.0353,-0.036,-0.0319,-0.0313,-0.0294,-0.0314,-0.031,-0.0307,-0.0318,-0.0332,-0.0549,-0.0428,-0.0427,-0.0832,-0.0856,-0.0877,-0.069,0,0,0,0,0]},{"header":{"parameterUnit":"m.s-1","parameterCategory":2,"la1":30.2991,"la2":30.254,"lo1":-89.0895,"lo2":-89.0444,"dy":0.0017,"dx":0.0017,"nx":28,"ny":28,"refTime":"2023-08-15T09:00:00:Z","depth":"4","parameterNumber":3,"parameterNumberName":"V-component_of_CURRENTS"},"data":[0,0,0,0,0,0,0,0,0,0,0,0,0,0,0,0,0,0,0,0,0,0,0,0,0,0,0,0,0,0,0,0,0,0,0,0,0,0,0,0,0,0,0,0,0,0,0,0,0,0,0,0,0,0,0,0,0,0,0.025,0.025,0,0.0267,0.0267,0.0267,0.0261,0.0261,0.0261,0.0261,0.0194,0.0193,0.0191,0,0,0,0,0,0,0,0,0,0,0,0,0,0.0191,0.0191,0.025,0.025,0.0251,0.0267,0.0267,0.0267,0.0261,0.0261,0.0261,0.0261,0.0195,0.0193,0.0191,0,0,0,0,0,0,0,0,0,0,0,0,0,0.0209,0.0192,0.025,0.0253,0.0254,0.0267,0.0267,0.0267,0.0261,0.0261,0.0261,0.0261,0.0196,0.0193,0.019,0.0175,0,0,0.0182,0.0181,0,0,0,0,0,0,0,0,0.0208,0.0211,0.0252,0.0253,0.0254,0.0265,0.0222,0.0233,0.0261,0.0254,0.0261,0.0261,0.0213,0.0209,0.0208,0.0171,0.0169,0.0182,0.0181,0.0179,0.0179,0,0,0,0,0,0,0,0.0207,0.021,0.0252,0.0252,0.0254,0.0247,0.0249,0.0224,0.0228,0.0254,0.0255,0.0263,0.0212,0.021,0.0206,0.0168,0.0182,0.018,0.0178,0.0177,0.0137,0.0138,0,0,0,0,0,0,0.0214,0.0209,0.0252,0.0253,0.0235,0.0248,0.025,0.0258,0.0231,0.0228,0.0263,0.0263,0.0215,0.0209,0.0203,0.0181,0.018,0.0177,0.0176,0.0137,0.0138,0.0138,0,0,0,0,0,0,0.0213,0.0218,0.0251,0.0235,0.0239,0.025,0.0258,0.0259,0.0263,0.0239,0.0234,0.0268,0.0215,0.0207,0.0211,0.0178,0.0176,0.0173,0.0136,0.0137,0.0138,0.0136,0,0,0,0,0,0,0.0211,0.0217,0.0234,0.0235,0.024,0.0249,0.0259,0.0259,0.027,0.027,0.0242,0.0235,0.0214,0.0215,0.0208,0.0174,0.0171,0.0136,0.0137,0.0138,0.0135,0.0137,0.0138,0,0,0,0,0,0.0209,0.0227,0.0235,0.0241,0.026,0.0249,0.025,0.0255,0.027,0.0261,0.0274,0.0236,0.0215,0.0215,0.0206,0.017,0.0135,0.0136,0.0138,0.0135,0.0136,0.0138,0,0,0,0,0,0,0.0215,0.0229,0.0237,0.0261,0.0253,0.025,0.0256,0.0261,0.0264,0.0276,0.0254,0.0249,0.0232,0.0217,0.0217,0.0166,0.0163,0.0163,0.0164,0.0165,0.0166,0.0149,0.0169,0,0,0,0,0,0.0226,0.0241,0.0241,0.026,0.0257,0.0259,0.0263,0.0264,0.0267,0.0269,0.0279,0.027,0.0228,0.0215,0.0196,0.0176,0.0198,0.0147,0.0148,0.0148,0.0132,0.0179,0.0183,0.0142,0.0142,0.0142,0,0,0.0237,0.0247,0.0258,0.0263,0.0261,0.0255,0.0259,0.0263,0.0262,0.026,0.0292,0.0279,0.0229,0.0206,0.0194,0.0189,0.0177,0.015,0.015,0.0133,0.0181,0.0185,0.0188,0.0143,0.0143,0.0143,0,0,0.0242,0.0269,0.0268,0.027,0.0272,0.0266,0.0268,0.0286,0.029,0.0318,0.0299,0.0289,0.0276,0.0224,0.0187,0.0186,0.0185,0.017,0.0151,0.0198,0.0201,0.0204,0.0258,0.0266,0.0166,0.0166,0.0166,0,0.0253,0.0265,0.0264,0.0264,0.0275,0.027,0.0267,0.0261,0.0293,0.0277,0.0334,0.0294,0.0276,0.0172,0.018,0.0182,0.022,0.0144,0.0199,0.0202,0.0206,0.0259,0.0268,0.0166,0.0166,0.0166,0.0166,0,0.0246,0.027,0.0272,0.027,0.0266,0.0275,0.0263,0.0268,0.03,0.0292,0.0263,0.0273,0.0238,0.0221,0.02,0.0169,0.0193,0.02,0.0193,0.021,0.0266,0.0275,0.0166,0.0166,0.0166,0.0166,0,0,0.0242,0.0262,0.0271,0.0273,0.0284,0.0271,0.0255,0.0212,0.017,0.0231,0.0192,0.0165,0.0179,0.014,0.0114,0.0144,0.0221,0.0185,0.0187,0.0234,0.0341,0.0201,0.0198,0.0248,0.0249,0.025,0.0379,0,0.024,0.0249,0.0259,0.0266,0.0265,0.0259,0.0232,0.0193,0.0174,0.0144,0.0124,0.0103,0.0136,0.0131,0.0162,0.0184,0.0242,0.0186,0.0321,0.0324,0.0194,0.0202,0.0253,0.0386,0.0388,0.0389,0.039,0,0.0231,0.0241,0.0267,0.025,0.0245,0.0268,0.02,0.0176,0.0089,0.0077,0.0046,0.0027,0.0027,0.01,0.0187,0.0156,0.0259,0.0308,0.0315,0.0181,0.0198,0.0362,0.0407,0.0406,0.0405,0.0404,0.0403,0,0.0215,0.0237,0.0267,0.0282,0.0268,0.0283,0.0272,0.0184,0.0123,0.0065,0.0016,0.0005,0.0033,0.0135,0.0217,0.0235,0.033,0.0375,0.0348,0.0342,0.0434,0.0429,0.0487,0.0487,0.0486,0.0486,0.0486,0,0.0202,0.022,0.0294,0.0314,0.032,0.0319,0.0283,0.0235,0.0152,0.0038,0.0023,-0.0071,0.0057,0.0081,0.0199,0.0265,0.0339,0.0333,0.0352,0.0434,0.0427,0.0442,0.0435,0.0491,0.049,0.0489,0.0488,0,0.0168,0.0225,0.0258,0.0304,0.033,0.0349,0.0326,0.0244,0.0196,0.0056,0.0047,-0.0063,-0.0045,0.0034,0.0181,0.0232,0.0319,0.0344,0.0406,0.043,0.0323,0.0315,0.0347,0.0343,0.034,0.0337,0.0334,0,0.0143,0.0177,0.027,0.0304,0.036,0.039,0.036,0.0304,0.0178,0.0014,-0.0096,-0.0116,-0.0178,-0.0063,0.002,0.0203,0.0232,0.0307,0.0327,0.0286,0.0304,0.0301,0.0298,0.0328,0.0328,0.0327,0.0326,0,0.0088,0.0165,0.0182,0.0284,0.0328,0.0294,0.0251,0.017,0.0034,-0.0026,-0.0186,-0.0189,-0.0213,-0.013,-0.0006,0.012,0.0257,0.0272,0.0282,0.0302,0.0264,0.0285,0.0286,0.0313,0.0315,0.0316,0.0317,0,0.0057,0.0069,0.015,0.0233,0.0265,0.0218,0.0191,0.0072,-0.0016,-0.0198,-0.0251,-0.0263,-0.0256,-0.0181,-0.0095,0.0012,0.0065,0.0151,0.0169,0.0184,0.006,-0.0016,-0.0048,0,0,0,0,0,0.0033,0.0048,0.0086,0.0152,0.0177,0.0208,0.0094,0.0031,-0.01,-0.0199,-0.0211,-0.024,-0.0177,-0.0198,-0.0101,-0.0166,0.007,-0.0057,0.0179,0.0245,0.0259,0.0123,0,0,0,0,0,0,0.0007,0.0037,0.0063,0.0095,0.0132,0.0112,0.0058,-0.004,-0.012,-0.0209,-0.0171,-0.0196,-0.013,-0.0175,-0.0076,-0.007,0.0091,-0.0041,-0.0039,0.0237,0.025,0.0261,0.0126,0,0,0,0,0]}]]